NOAA 21 (JPSS-2)

Last updated on Wed Sep 23 2026 00:03:10 GMT+0000 (Coordinated Universal Time)

1 54234U 22150A 26265.58514394 .00000025 00000+0 32698-4 0 9996 2 54234 98.7109 202.7522 0000712 299.7000 60.4105 14.19550212200368
UTC large
Height (km)
Speed (km/s)
/
Latitude / Longitude
Inclination (degrees)
Orbital Period (minutes)
Azimuth
Elevation
Range (km)
Doppler Factor

Next 0 passes for location: London (51.5072 / 0.1276)

No passes found over London.
NOAA 21 (JPSS-2)